When you browse on this site, cookies collect data to enhance your experience and personalize the content and advertising you see.
Visit our Privacy Policy to learn more. By continuing to use the site, you agree to this use of cookies and data.

Hourly Weather Podebrady

Today, 6 August, Thursday

Time Temperature Precipitation Wind Pressure Humidity
00:00 +15°C° 0 mm 2 mps 748 mmHg 79%
01:00 +15°C° 0 mm 1 mps 748 mmHg 80%
02:00 +15°C° 0 mm 1 mps 748 mmHg 80%
03:00 +14°C° 0 mm 1 mps 748 mmHg 80%
04:00 +14°C° 0 mm 1 mps 748 mmHg 80%
05:00 +15°C° 0 mm 1 mps 748 mmHg 78%
06:00 +18°C° 0 mm 1 mps 748 mmHg 75%
07:00 +19°C° 0 mm 1 mps 748 mmHg 72%
08:00 +19°C° 0 mm 2 mps 748 mmHg 69%
09:00 +21°C° 0 mm 2 mps 749 mmHg 65%
10:00 +24°C° 0 mm 2 mps 749 mmHg 62%
11:00 +25°C° 0 mm 2 mps 749 mmHg 61%
12:00 +26°C° 0 mm 2 mps 749 mmHg 60%
13:00 +27°C° 0 mm 3 mps 748 mmHg 59%
14:00 +27°C° 0 mm 3 mps 748 mmHg 60%
15:00 +27°C° 0 mm 3 mps 748 mmHg 62%
16:00 +27°C° 0 mm 3 mps 748 mmHg 63%
17:00 +26°C° 0 mm 3 mps 748 mmHg 69%
18:00 +25°C° 0 mm 3 mps 748 mmHg 76%
19:00 +24°C° 0 mm 3 mps 748 mmHg 82%
20:00 +23°C° 0 mm 2 mps 748 mmHg 85%
21:00 +21°C° 0 mm 2 mps 749 mmHg 88%
22:00 +20°C° 0 mm 2 mps 749 mmHg 91%
23:00 +20°C° 0 mm 1 mps 749 mmHg 92%

Tomorrow, 7 August, Friday

Time Temperature Precipitation Wind Pressure Humidity
00:00 +20°C° 0 mm 1 mps 749 mmHg 92%
01:00 +20°C° 0 mm 1 mps 749 mmHg 92%
02:00 +20°C° 0 mm 1 mps 749 mmHg 93%
03:00 +17°C° 0 mm 0 mps 749 mmHg 93%
04:00 +17°C° 0 mm 0 mps 749 mmHg 93%
05:00 +18°C° 0 mm 0 mps 749 mmHg 90%
06:00 +19°C° 0 mm 0 mps 749 mmHg 87%
07:00 +20°C° 0 mm 0 mps 749 mmHg 83%
08:00 +24°C° 0 mm 1 mps 749 mmHg 77%
09:00 +26°C° 0 mm 1 mps 749 mmHg 71%
10:00 +27°C° 0 mm 1 mps 749 mmHg 64%
11:00 +29°C° 0 mm 1 mps 749 mmHg 59%
12:00 +30°C° 0 mm 1 mps 749 mmHg 53%
13:00 +31°C° 0 mm 1 mps 749 mmHg 48%
14:00 +31°C° 0 mm 1 mps 749 mmHg 47%
15:00 +31°C° 0 mm 2 mps 748 mmHg 46%
16:00 +31°C° 0 mm 2 mps 748 mmHg 45%
17:00 +29°C° 0 mm 2 mps 748 mmHg 52%
18:00 +28°C° 0 mm 2 mps 748 mmHg 60%
19:00 +26°C° 0 mm 2 mps 748 mmHg 67%
20:00 +25°C° 0 mm 2 mps 748 mmHg 71%
21:00 +24°C° 0 mm 2 mps 748 mmHg 74%
22:00 +23°C° 0 mm 1 mps 749 mmHg 77%
23:00 +22°C° 0 mm 1 mps 748 mmHg 77%

Day after tomorrow, 8 August, Saturday

Time Temperature Precipitation Wind Pressure Humidity
00:00 +22°C° 0 mm 1 mps 748 mmHg 78%
01:00 +21°C° 0 mm 1 mps 748 mmHg 78%
02:00 +21°C° 0 mm 1 mps 748 mmHg 79%
03:00 +21°C° 0 mm 1 mps 748 mmHg 80%
04:00 +20°C° 0 mm 1 mps 748 mmHg 81%
05:00 +21°C° 0 mm 1 mps 748 mmHg 78%
06:00 +22°C° 0 mm 1 mps 748 mmHg 75%
07:00 +22°C° 0 mm 0 mps 748 mmHg 73%
08:00 +25°C° 0 mm 1 mps 748 mmHg 68%
09:00 +27°C° 0 mm 1 mps 749 mmHg 62%
10:00 +28°C° 0 mm 1 mps 749 mmHg 57%
11:00 +29°C° 0 mm 1 mps 748 mmHg 53%
12:00 +30°C° 0 mm 1 mps 748 mmHg 49%
13:00 +31°C° 0 mm 1 mps 748 mmHg 45%
14:00 +31°C° 0 mm 1 mps 748 mmHg 44%
15:00 +31°C° 0 mm 1 mps 747 mmHg 43%
16:00 +31°C° 0 mm 1 mps 747 mmHg 42%
17:00 +30°C° 0 mm 1 mps 747 mmHg 49%
18:00 +28°C° 0 mm 1 mps 747 mmHg 55%
19:00 +26°C° 0 mm 1 mps 747 mmHg 62%
20:00 +25°C° 0 mm 1 mps 747 mmHg 66%
21:00 +24°C° 0 mm 1 mps 747 mmHg 70%
22:00 +23°C° 0 mm 1 mps 747 mmHg 75%
23:00 +23°C° 0 mm 1 mps 747 mmHg 77%

9 August, Sunday

Time Temperature Precipitation Wind Pressure Humidity
00:00 +22°C° 0 mm 1 mps 747 mmHg 80%
01:00 +22°C° 0 mm 1 mps 747 mmHg 82%
02:00 +21°C° 0 mm 1 mps 747 mmHg 83%
03:00 +21°C° 0 mm 1 mps 747 mmHg 85%
04:00 +21°C° 0 mm 1 mps 746 mmHg 86%
05:00 +22°C° 0 mm 1 mps 747 mmHg 83%
06:00 +23°C° 0 mm 1 mps 747 mmHg 79%
07:00 +24°C° 0 mm 1 mps 747 mmHg 76%
08:00 +26°C° 0 mm 2 mps 747 mmHg 69%
09:00 +27°C° 0 mm 2 mps 747 mmHg 62%
10:00 +29°C° 0 mm 3 mps 747 mmHg 55%
11:00 +29°C° 0 mm 3 mps 747 mmHg 52%
12:00 +30°C° 0 mm 3 mps 747 mmHg 49%
13:00 +31°C° 0 mm 3 mps 746 mmHg 46%
14:00 +31°C° 0 mm 3 mps 746 mmHg 47%
15:00 +31°C° 0 mm 3 mps 746 mmHg 48%
16:00 +31°C° 0 mm 3 mps 746 mmHg 49%
17:00 +29°C° 0 mm 3 mps 746 mmHg 56%
18:00 +27°C° 0 mm 3 mps 746 mmHg 63%
19:00 +26°C° 0 mm 3 mps 746 mmHg 70%
20:00 +25°C° 0 mm 2 mps 746 mmHg 72%
21:00 +24°C° 0 mm 2 mps 746 mmHg 74%
22:00 +23°C° 0 mm 2 mps 746 mmHg 75%
23:00 +21°C° 0 mm 2 mps 746 mmHg 76%

10 August, Monday

Time Temperature Precipitation Wind Pressure Humidity
00:00 +22°C° 0 mm 1 mps 746 mmHg 76%
01:00 +21°C° 0 mm 1 mps 746 mmHg 77%
02:00 +21°C° 0 mm 1 mps 746 mmHg 78%
03:00 +21°C° 0 mm 1 mps 746 mmHg 79%
04:00 +18°C° 0 mm 0 mps 746 mmHg 80%
05:00 +21°C° 0 mm 1 mps 746 mmHg 77%
06:00 +22°C° 0 mm 1 mps 746 mmHg 74%
07:00 +24°C° 0 mm 1 mps 746 mmHg 71%
08:00 +25°C° 0 mm 1 mps 746 mmHg 66%
09:00 +27°C° 0 mm 2 mps 746 mmHg 61%
10:00 +29°C° 0 mm 2 mps 746 mmHg 56%
11:00 +29°C° 0 mm 2 mps 746 mmHg 53%
12:00 +30°C° 0 mm 2 mps 746 mmHg 50%
13:00 +31°C° 0 mm 2 mps 745 mmHg 47%
14:00 +31°C° 0 mm 2 mps 745 mmHg 47%
15:00 +31°C° 0 mm 2 mps 745 mmHg 46%
16:00 +31°C° 0 mm 2 mps 745 mmHg 46%
17:00 +29°C° 0 mm 2 mps 745 mmHg 53%
18:00 +28°C° 0 mm 2 mps 745 mmHg 60%
19:00 +26°C° 0 mm 2 mps 745 mmHg 67%
20:00 +25°C° 0 mm 2 mps 745 mmHg 71%
21:00 +24°C° 0 mm 2 mps 745 mmHg 74%
22:00 +23°C° 0 mm 2 mps 745 mmHg 77%
23:00 +23°C° 0 mm 2 mps 745 mmHg 78%

11 August, Tuesday

Time Temperature Precipitation Wind Pressure Humidity
00:00 +22°C° 0 mm 1 mps 745 mmHg 79%
01:00 +22°C° 0 mm 1 mps 745 mmHg 80%
02:00 +21°C° 0 mm 1 mps 745 mmHg 81%
03:00 +21°C° 0 mm 1 mps 745 mmHg 82%
04:00 +21°C° 0 mm 1 mps 745 mmHg 83%
05:00 +22°C° 0 mm 1 mps 745 mmHg 80%
06:00 +23°C° 0 mm 1 mps 745 mmHg 77%
07:00 +24°C° 0 mm 1 mps 746 mmHg 74%
08:00 +25°C° 0 mm 1 mps 746 mmHg 68%
09:00 +27°C° 0 mm 1 mps 746 mmHg 63%
10:00 +29°C° 0 mm 2 mps 746 mmHg 57%
11:00 +29°C° 0 mm 2 mps 746 mmHg 53%
12:00 +30°C° 0 mm 2 mps 746 mmHg 50%
13:00 +31°C° 0 mm 2 mps 746 mmHg 46%
14:00 +31°C° 0 mm 2 mps 745 mmHg 46%
15:00 +31°C° 0 mm 2 mps 745 mmHg 45%
16:00 +31°C° 0 mm 2 mps 745 mmHg 45%
17:00 +30°C° 0 mm 2 mps 745 mmHg 53%
18:00 +28°C° 0 mm 2 mps 745 mmHg 60%
19:00 +26°C° 0 mm 3 mps 745 mmHg 68%
20:00 +25°C° 0 mm 2 mps 745 mmHg 70%
21:00 +24°C° 0 mm 2 mps 746 mmHg 73%
22:00 +23°C° 0 mm 2 mps 746 mmHg 75%
23:00 +23°C° 0 mm 2 mps 746 mmHg 76%
Show more